Weather History for KATW - April, 2013

Change the Weather History Date:

Saturday, April 6, 2013

  Actual Average Record
Temperature  
Mean Temperature 40 °F -  
Max Temperature 50 °F 49 °F 86 °F (1991)
Min Temperature 30 °F 30 °F 7 °F (1979)
Degree Days  
Heating Degree Days 25    
Moisture  
Dew Point 34 °F    
Average Humidity 87    
Maximum Humidity 100    
Minimum Humidity 66    
Precipitation  
Precipitation 0.01 in - - ()
Sea Level Pressure  
Sea Level Pressure 29.87 in    
Wind  
Wind Speed 11 mph (SE)    
Max Wind Speed 22 mph    
Max Gust Speed 28 mph    
Visibility 7 miles    
Events Rain , Snow    
Averages and records for this station are not official NWS values.
T = Trace of Precipitation, MM = Missing Value Source: NWS Daily Summary

Daily Weather History Graph

Daily Weather History Graph

Search for Another Location

Airport or City:

Trip Planner

Search our weather history database for the weather conditions in past years. The results will help you decide how hot, cold, wet, or windy it might be!

Date:

Astronomy

Apr. 06, 2013 Rise Set
Actual Time 6:25 AM CDT 7:27 PM CDT
Civil Twilight 5:56 AM CDT 7:57 PM CDT
Nautical Twilight 5:20 AM CDT 8:32 PM CDT
Astronomical Twilight 4:43 AM CDT 9:10 PM CDT
Moon 4:17 AM CDT (4/6) 3:49 PM CDT (4/6)
Length of Visible Light 14h 01m
Length of Day
13h 01m
Waning Crescent, 15% of the Moon is Illuminated
Apr 6
Waning Crescent
Apr 10
New
Apr 18
First Quarter
Apr 25
Full
May 2
Last Quarter

Hourly Weather History & Observations

Time (CDT) Temp. Windchill Dew Point Humidity Pressure Visibility Wind Dir Wind Speed Gust Speed Precip Events Conditions
12:15 AM 32.0 °F 24.2 °F 26.6 °F 80% 30.16 in 7.0 mi SSE 9.2 mph - N/A Snow Light Snow
12:35 AM 32.0 °F 23.6 °F 28.4 °F 87% 30.16 in 7.0 mi SE 10.4 mph - N/A Snow Light Snow
12:55 AM 32.0 °F 24.2 °F 28.4 °F 87% 30.16 in 2.0 mi SE 9.2 mph - N/A Snow Light Snow
1:15 AM 32.0 °F 22.5 °F 30.2 °F 93% 30.15 in 2.5 mi SE 12.7 mph - N/A Snow Light Snow
1:35 AM 30.2 °F 20.8 °F 30.2 °F 100% 30.15 in 1.0 mi ESE 11.5 mph - N/A Snow Light Snow
1:55 AM 30.2 °F 20.8 °F 30.2 °F 100% 30.14 in 1.2 mi ESE 11.5 mph - N/A Snow Light Snow
2:15 AM 30.2 °F 21.3 °F 30.2 °F 100% 30.12 in 1.5 mi ESE 10.4 mph - N/A Snow Light Snow
2:35 AM 30.2 °F 22.6 °F 30.2 °F 100% 30.11 in 2.5 mi East 8.1 mph - 0.01 in Snow Light Snow
2:55 AM 30.2 °F 21.3 °F 30.2 °F 100% 30.09 in 5.0 mi East 10.4 mph - 0.01 in Snow Light Snow
3:15 AM 30.2 °F 21.3 °F 30.2 °F 100% 30.07 in 2.5 mi East 10.4 mph - N/A Snow Light Snow
3:35 AM 30.2 °F 21.9 °F 30.2 °F 100% 30.07 in 10.0 mi ESE 9.2 mph - N/A Snow Light Snow
3:55 AM 32.0 °F 24.2 °F 30.2 °F 93% 30.06 in 10.0 mi ESE 9.2 mph - N/A   Overcast
4:15 AM 32.0 °F 25.6 °F 30.2 °F 93% 30.07 in 10.0 mi ESE 6.9 mph - N/A   Overcast
4:35 AM 32.0 °F 24.8 °F 30.2 °F 93% 30.06 in 10.0 mi East 8.1 mph - N/A   Overcast
4:55 AM 32.0 °F 23.6 °F 30.2 °F 93% 30.04 in 10.0 mi ESE 10.4 mph - N/A   Overcast
5:15 AM 30.2 °F 20.8 °F 30.2 °F 100% 30.03 in 10.0 mi ESE 11.5 mph - N/A   Mostly Cloudy
5:45 AM 30.2 °F 20.8 °F 30.2 °F 100% 30.02 in 10.0 mi ESE 11.5 mph - N/A   Overcast
6:45 AM 32.0 °F 22.1 °F 30.2 °F 93% 30.00 in 10.0 mi ESE 13.8 mph - N/A   Overcast
7:45 AM 33.8 °F 23.2 °F 30.2 °F 87% 29.97 in 10.0 mi ESE 17.3 mph - N/A   Overcast
8:45 AM 35.6 °F 26.2 °F 28.4 °F 75% 29.93 in 10.0 mi ESE 15.0 mph - N/A   Mostly Cloudy
9:45 AM 35.6 °F 25.9 °F 28.4 °F 75% 29.88 in 7.0 mi SE 16.1 mph - N/A   Light Drizzle
10:45 AM 37.4 °F 28.2 °F 32.0 °F 81% 29.83 in 7.0 mi SE 16.1 mph - N/A   Light Drizzle
11:45 AM 39.2 °F 31.6 °F 33.8 °F 81% 29.82 in 10.0 mi South 12.7 mph 17.3 mph N/A   Overcast
12:45 PM 41.0 °F 33.1 °F 33.8 °F 76% 29.76 in 10.0 mi SSE 15.0 mph 20.7 mph N/A   Overcast
1:45 PM 42.8 °F 34.8 °F 33.8 °F 70% 29.72 in 10.0 mi SE 17.3 mph - N/A   Overcast
2:45 PM 44.6 °F 37.4 °F 33.8 °F 66% 29.68 in 7.0 mi SE 16.1 mph 23.0 mph N/A Rain Light Rain
3:45 PM 44.6 °F 38.8 °F 33.8 °F 66% 29.63 in 7.0 mi SE 11.5 mph - N/A   Light Drizzle
4:45 PM 46.4 °F 41.5 °F 35.6 °F 66% 29.61 in 7.0 mi ESE 10.4 mph - N/A   Overcast
5:47 PM 44.6 °F 40.2 °F 37.4 °F 76% 29.57 in 7.0 mi SE 8.1 mph - N/A Rain Light Rain
6:45 PM 44.6 °F 40.7 °F 37.4 °F 76% 29.55 in 7.0 mi SE 6.9 mph - N/A Rain Light Rain
7:45 PM 44.6 °F 41.4 °F 39.2 °F 81% 29.52 in 7.0 mi SE 5.8 mph - N/A   Drizzle
8:45 PM 48.2 °F - 42.8 °F 82% 29.50 in 7.0 mi South 8.1 mph - N/A   Overcast
10:45 PM 50.0 °F - 46.4 °F 87% 29.50 in 10.0 mi SSW 11.5 mph - N/A   Overcast
10:55 PM 50.0 °F - 46.4 °F 87% 29.49 in 10.0 mi SW 12.7 mph - N/A   Overcast
11:15 PM 48.2 °F - 46.4 °F 93% 29.49 in 10.0 mi WSW 11.5 mph 17.3 mph N/A   Overcast
11:35 PM 48.2 °F - 46.4 °F 93% 29.49 in 10.0 mi WSW 17.3 mph 24.2 mph N/A   Overcast
11:55 PM 46.4 °F 38.5 °F 44.6 °F 93% 29.50 in 10.0 mi West 21.9 mph 27.6 mph N/A   Overcast